FW3182 Weather Reports


time (UTC)temp
C
wind
direction
speed
KPH
gust
KPH
rain 1hr
cm
rain 24hr
cm
rain mn
cm
humidity
%
barometer
mb
20260901194203 37 24 4.8 9.7 0.00 0.00 0.00 40 1013.4
20260901193703 37 56 1.6 9.7 0.00 0.00 0.00 40 1013.4
20260901193204 37 34 1.6 4.8 0.00 0.00 0.00 41 1013.3
20260901192704 36 184 1.6 4.8 0.00 0.00 0.00 41 1013.5
20260901192204 37 268 6.4 9.7 0.00 0.00 0.00 39 1013.6
20260901191704 37 207 8.0 16.1 0.00 0.00 0.00 39 1013.6
20260901191204 37 244 1.6 4.8 0.00 0.00 0.00 40 1013.7
20260901190703 37 268 1.6 4.8 0.00 0.00 0.00 40 1013.8
20260901190204 37 126 1.6 3.2 0.00 0.00 0.00 39 1013.9
20260901185704 37 280 3.2 11.3 0.00 0.00 0.00 40 1013.9
20260901185203 37 172 3.2 8.0 0.00 0.00 0.00 41 1013.9
20260901184704 37 245 3.2 9.7 0.00 0.00 0.00 42 1014.0
20260901184204 37 189 4.8 9.7 0.00 0.00 0.00 42 1014.1
20260901183203 37 139 3.2 9.7 0.00 0.00 0.00 43 1014.2
20260901182704 36 98 4.8 9.7 0.00 0.00 0.00 44 1014.4
20260901182204 36 258 4.8 9.7 0.00 0.00 0.00 46 1014.5
20260901181703 36 200 3.2 9.7 0.00 0.00 0.00 47 1014.5
20260901180703 35 279 3.2 9.7 0.00 0.00 0.00 47 1014.8
20260901180203 35 236 3.2 9.7 0.00 0.00 0.00 48 1014.8
20260901175704 35 259 3.2 4.8 0.00 0.00 0.00 48 1014.8
20260901175204 35 270 3.2 4.8 0.00 0.00 0.00 48 1014.8
20260901174703 35 214 3.2 8.0 0.00 0.00 0.00 48 1015.1
20260901174204 35 67 1.6 9.7 0.00 0.00 0.00 49 1015.1
20260901173704 34 271 0.0 9.7 0.00 0.00 0.00 52 1015.1
20260901173203 34 245 1.6 8.0 0.00 0.00 0.00 51 1015.2
20260901172704 34 284 4.8 12.9 0.00 0.00 0.00 51 1015.3
20260901172204 34 214 3.2 11.3 0.00 0.00 0.00 52 1015.4
20260901171704 34 279 1.6 8.0 0.00 0.00 0.00 51 1015.4
20260901170704 33 125 4.8 9.7 0.00 0.00 0.00 53 1015.7
20260901165704 33 132 1.6 11.3 0.00 0.00 0.00 56 1015.8
20260901165203 32 235 1.6 8.0 0.00 0.00 0.00 57 1015.8
20260901164703 32 190 4.8 9.7 0.00 0.00 0.00 57 1015.9
20260901164204 32 179 4.8 14.5 0.00 0.00 0.00 56 1015.9
20260901163703 32 169 1.6 11.3 0.00 0.00 0.00 57 1015.9
20260901163203 32 120 6.4 16.1 0.00 0.00 0.00 57 1015.9
20260901162704 32 214 6.4 14.5 0.00 0.00 0.00 58 1015.9
20260901162203 32 283 6.4 12.9 0.00 0.00 0.00 59 1016.0
20260901161203 31 184 6.4 19.3 0.00 0.00 0.00 60 1016.1
20260901160703 31 249 3.2 8.0 0.00 0.00 0.00 60 1016.0
20260901160203 31 273 1.6 11.3 0.00 0.00 0.00 62 1016.0
20260901155704 31 219 1.6 9.7 0.00 0.00 0.00 62 1016.1
20260901155203 31 277 3.2 9.7 0.00 0.00 0.00 61 1016.1
20260901154704 31 251 3.2 12.9 0.00 0.00 0.00 63 1016.1
20260901154204 31 205 4.8 9.7 0.00 0.00 0.00 64 1016.1
20260901153703 30 244 1.6 4.8 0.00 0.00 0.00 65 1016.1
20260901153203 30 175 1.6 8.0 0.00 0.00 0.00 65 1016.1
20260901152704 30 202 4.8 11.3 0.00 0.00 0.00 64 1016.1
20260901152204 30 193 4.8 9.7 0.00 0.00 0.00 65 1016.1
20260901151704 30 211 3.2 11.3 0.00 0.00 0.00 65 1016.1
20260901151203 30 197 0.0 4.8 0.00 0.00 0.00 66 1016.2
20260901150704 30 191 3.2 11.3 0.00 0.00 0.00 67 1016.1
20260901150204 30 193 0.0 1.6 0.00 0.00 0.00 68 1016.1
20260901145204 30 189 1.6 3.2 0.00 0.00 0.00 67 1016.1
20260901144704 29 214 1.6 4.8 0.00 0.00 0.00 68 1016.1
20260901144203 30 205 0.0 8.0 0.00 0.00 0.00 68 1016.2
20260901143204 29 19 0.0 0.0 0.00 0.00 0.00 68 1016.2
20260901142703 29 77 0.0 0.0 0.00 0.00 0.00 69 1016.1
20260901141703 28 68 0.0 1.6 0.00 0.00 0.00 71 1016.2
20260901141204 28 61 0.0 3.2 0.00 0.00 0.00 71 1016.2
20260901140203 28 202 0.0 0.0 0.00 0.00 0.00 72 1016.3
20260901135704 27 202 0.0 1.6 0.00 0.00 0.00 73 1016.3
20260901135204 27 131 0.0 1.6 0.00 0.00 0.00 74 1016.4
20260901134703 27 172 0.0 1.6 0.00 0.00 0.00 74 1016.3
20260901134204 27 167 1.6 3.2 0.00 0.00 0.00 75 1016.3
20260901133704 26 150 0.0 1.6 0.00 0.00 0.00 75 1016.3
20260901133203 26 175 0.0 0.0 0.00 0.00 0.00 77 1016.2
20260901132704 26 182 0.0 0.0 0.00 0.00 0.00 78 1016.2
20260901132204 25 128 0.0 0.0 0.00 0.00 0.00 79 1016.2
20260901131704 25 195 0.0 0.0 0.00 0.00 0.00 79 1016.2
20260901131204 25 103 0.0 0.0 0.00 0.00 0.00 80 1016.2
20260901130703 24 127 0.0 0.0 0.00 0.00 0.00 82 1016.2
20260901130204 23 127 0.0 0.0 0.00 0.00 0.00 83 1016.2
20260901125703 23 127 0.0 0.0 0.00 0.00 0.00 84 1016.1
20260901125204 23 127 0.0 0.0 0.00 0.00 0.00 84 1016.1
20260901124703 22 127 0.0 0.0 0.00 0.00 0.00 85 1016.1
20260901123703 22 127 0.0 0.0 0.00 0.00 0.00 85 1016.0
20260901122703 22 127 0.0 0.0 0.00 0.00 0.00 85 1015.8
20260901121704 22 134 0.0 0.0 0.00 0.00 0.00 86 1015.7
20260901121203 22 134 0.0 0.0 0.00 0.00 0.00 85 1015.6
20260901120704 22 134 0.0 0.0 0.00 0.00 0.00 86 1015.6
20260901120203 22 134 0.0 0.0 0.00 0.00 0.00 86 1015.5
20260901115703 21 134 0.0 0.0 0.00 0.00 0.00 86 1015.6
20260901115204 21 132 0.0 0.0 0.00 0.00 0.00 86 1015.5
20260901113704 22 207 0.0 0.0 0.00 0.00 0.00 85 1015.4
20260901113204 22 207 0.0 0.0 0.00 0.00 0.00 85 1015.3
20260901112703 22 72 0.0 0.0 0.00 0.00 0.00 84 1015.3
20260901112203 22 72 0.0 0.0 0.00 0.00 0.00 84 1015.2
20260901111703 22 72 0.0 0.0 0.00 0.00 0.00 84 1015.1
20260901111204 22 82 0.0 0.0 0.00 0.00 0.00 83 1015.1
20260901110703 22 82 0.0 0.0 0.00 0.00 0.00 84 1015.1
20260901110203 22 82 0.0 0.0 0.00 0.00 0.00 84 1015.1
20260901105704 22 82 0.0 0.0 0.00 0.00 0.00 84 1015.1
20260901105204 21 82 0.0 0.0 0.00 0.00 0.00 85 1015.0
20260901103704 21 82 0.0 0.0 0.00 0.00 0.00 84 1015.0
20260901103203 21 82 0.0 0.0 0.00 0.00 0.00 84 1015.0
20260901102704 21 82 0.0 0.0 0.00 0.00 0.00 84 1015.0
20260901101704 22 82 0.0 0.0 0.00 0.00 0.00 83 1014.9
20260901101204 22 82 0.0 0.0 0.00 0.00 0.00 83 1014.9
20260901100703 22 82 0.0 0.0 0.00 0.00 0.00 82 1014.9
20260901100204 22 82 0.0 0.0 0.00 0.00 0.00 82 1014.9
20260901095704 22 82 0.0 0.0 0.00 0.00 0.00 82 1014.9
20260901095203 22 82 0.0 0.0 0.00 0.00 0.00 81 1014.9
20260901094704 22 82 0.0 0.0 0.00 0.00 0.00 81 1014.9
20260901094204 22 82 0.0 0.0 0.00 0.00 0.00 81 1014.8
20260901093703 22 82 0.0 0.0 0.00 0.00 0.00 81 1014.9
20260901093204 22 82 0.0 0.0 0.00 0.00 0.00 80 1014.8
20260901092704 22 82 0.0 0.0 0.00 0.00 0.00 79 1014.8
20260901092204 23 82 0.0 0.0 0.00 0.00 0.00 79 1014.8
20260901091704 23 82 0.0 0.0 0.00 0.00 0.00 78 1014.7
20260901091203 23 82 0.0 0.0 0.00 0.00 0.00 78 1014.7
20260901090704 23 82 0.0 0.0 0.00 0.00 0.00 78 1014.7
20260901090204 23 82 0.0 0.0 0.00 0.00 0.00 78 1014.7
20260901085703 23 82 0.0 0.0 0.00 0.00 0.00 78 1014.7
20260901085204 23 82 0.0 0.0 0.00 0.00 0.00 77 1014.6
20260901084704 23 82 0.0 0.0 0.00 0.00 0.00 77 1014.7
20260901084203 23 82 0.0 0.0 0.00 0.00 0.00 77 1014.6
20260901083703 23 82 0.0 0.0 0.00 0.00 0.00 77 1014.6
20260901082704 23 84 0.0 0.0 0.00 0.00 0.00 77 1014.6
20260901082204 23 84 0.0 0.0 0.00 0.00 0.00 77 1014.5
20260901081703 23 163 0.0 0.0 0.00 0.00 0.00 77 1014.4
20260901081204 23 165 0.0 0.0 0.00 0.00 0.00 76 1014.4
20260901080704 23 165 0.0 0.0 0.00 0.00 0.00 77 1014.5
20260901075704 23 165 0.0 0.0 0.00 0.00 0.00 75 1014.4
20260901075203 23 165 0.0 0.0 0.00 0.00 0.00 75 1014.4
20260901074704 23 165 0.0 0.0 0.00 0.00 0.00 75 1014.4
20260901073204 23 165 0.0 0.0 0.00 0.00 0.00 75 1014.5
20260901072703 23 165 0.0 0.0 0.00 0.00 0.00 75 1014.5
20260901071703 24 165 0.0 0.0 0.00 0.00 0.00 74 1014.4
20260901071203 24 165 0.0 0.0 0.00 0.00 0.00 74 1014.4
20260901070704 24 165 0.0 0.0 0.00 0.00 0.00 74 1014.5
20260901065704 24 165 0.0 0.0 0.00 0.00 0.00 74 1014.5
20260901065203 24 165 0.0 0.0 0.00 0.00 0.00 74 1014.6
20260901064704 24 165 0.0 0.0 0.00 0.00 0.00 74 1014.5
20260901064204 23 165 0.0 0.0 0.00 0.00 0.00 74 1014.6
20260901063704 23 165 0.0 0.0 0.00 0.00 0.00 74 1014.6
20260901063204 23 165 0.0 0.0 0.00 0.00 0.00 74 1014.6
20260901062203 24 165 0.0 0.0 0.00 0.00 0.00 74 1014.6
20260901061704 24 165 0.0 0.0 0.00 0.00 0.00 73 1014.6
20260901060703 24 165 0.0 0.0 0.00 0.00 0.00 72 1014.6
20260901060204 25 165 0.0 0.0 0.00 0.00 0.00 71 1014.6
20260901055704 25 165 0.0 0.0 0.00 0.00 0.00 71 1014.5
20260901055203 25 165 0.0 0.0 0.00 0.00 0.00 70 1014.5
20260901054703 25 165 0.0 0.0 0.00 0.00 0.00 70 1014.6
20260901054203 25 165 0.0 0.0 0.00 0.00 0.00 70 1014.5
20260901053703 25 169 0.0 0.0 0.00 0.00 0.00 70 1014.5
20260901053203 25 169 0.0 0.0 0.00 0.00 0.00 69 1014.4
20260901052704 25 169 0.0 0.0 0.00 0.00 0.00 68 1014.4
20260901052204 25 169 0.0 0.0 0.00 0.00 0.00 68 1014.4
20260901051704 25 169 0.0 0.0 0.00 0.00 0.00 67 1014.4
20260901051203 26 169 0.0 0.0 0.00 0.00 0.00 67 1014.3
20260901050704 26 169 0.0 0.0 0.00 0.00 0.00 67 1014.3
20260901050203 26 169 0.0 0.0 0.00 0.00 0.00 66 1014.3
20260901045204 26 169 0.0 0.0 0.00 0.00 0.00 66 1014.3
20260901044704 26 169 0.0 0.0 0.00 0.00 0.00 66 1014.3
20260901044203 26 169 0.0 0.0 0.00 0.00 0.00 65 1014.3
20260901043203 26 169 0.0 0.0 0.00 0.00 0.00 65 1014.2
20260901042704 26 169 0.0 0.0 0.00 0.00 0.00 65 1014.2
20260901042203 26 169 0.0 0.0 0.00 0.00 0.00 64 1014.2
20260901041704 26 169 0.0 0.0 0.00 0.00 0.00 64 1014.2
20260901041203 27 169 0.0 0.0 0.00 0.00 0.00 64 1014.1
20260901040704 27 169 0.0 0.0 0.00 0.00 0.00 63 1014.1
20260901040203 27 169 0.0 0.0 0.00 0.00 0.00 63 1014.1
20260901035704 27 169 0.0 0.0 0.00 0.00 0.00 63 1014.1
20260901035203 27 169 0.0 0.0 0.00 0.00 0.00 62 1014.1
20260901034704 27 170 0.0 0.0 0.00 0.00 0.00 61 1014.0
20260901033703 28 179 0.0 0.0 0.00 0.00 0.00 60 1014.2
20260901033204 28 173 0.0 0.0 0.00 0.00 0.00 60 1014.2
20260901031204 28 172 0.0 0.0 0.00 0.00 0.00 59 1014.1
20260901030703 28 198 0.0 0.0 0.00 0.00 0.00 59 1014.2
20260901030204 28 186 0.0 3.2 0.00 0.00 0.00 58 1014.0
20260901025703 28 195 0.0 1.6 0.00 0.00 0.00 58 1014.0
20260901025204 28 195 0.0 4.8 0.00 0.00 0.00 58 1014.0
20260901024703 28 195 0.0 1.6 0.00 0.00 0.00 58 1014.0
20260901024203 29 144 0.0 4.8 0.00 0.00 0.00 58 1013.9
20260901023703 29 191 0.0 3.2 0.00 0.00 0.00 57 1014.0
20260901023204 29 230 0.0 4.8 0.00 0.00 0.00 57 1013.9
20260901022704 29 138 0.0 1.6 0.00 0.00 0.00 57 1013.8
20260901022204 29 149 0.0 4.8 0.00 0.00 0.00 56 1013.6
20260901021204 30 147 0.0 1.6 0.00 0.00 0.00 56 1013.5
20260901015703 30 107 0.0 1.6 0.00 0.00 0.00 55 1013.2
20260901015204 30 183 0.0 3.2 0.00 0.00 0.00 55 1013.2
20260901014704 30 118 0.0 4.8 0.00 0.00 0.00 54 1013.2
20260901013704 29 147 0.0 1.6 0.00 0.00 0.00 55 1012.9
20260901013204 30 193 0.0 0.0 0.00 0.00 0.00 54 1012.9
20260901012704 30 180 0.0 0.0 0.00 0.00 0.00 54 1012.8
20260901011704 30 180 0.0 0.0 0.00 0.00 0.00 52 1012.6
20260901011203 30 180 0.0 0.0 0.00 0.00 0.00 52 1012.6
20260901010703 31 180 0.0 0.0 0.00 0.00 0.00 52 1012.6
20260901005703 31 84 0.0 0.0 0.00 0.00 0.00 50 1012.4
20260901004703 32 84 0.0 0.0 0.00 0.00 0.00 48 1012.4
20260901003204 33 110 0.0 0.0 0.00 0.00 0.00 46 1012.3
20260901002704 33 332 0.0 1.6 0.00 0.00 0.00 45 1012.3
20260901002204 33 309 0.0 0.0 0.00 0.00 0.00 44 1012.3
20260901001704 34 309 0.0 1.6 0.00 0.00 0.00 43 1012.2
20260901001204 35 210 0.0 0.0 0.00 0.00 0.00 42 1012.2
20260901000204 35 227 0.0 4.8 0.00 0.00 0.00 41 1012.2
20260831235703 35 281 0.0 4.8 0.00 0.00 0.00 41 1012.2
20260831235203 36 156 0.0 4.8 0.00 0.00 0.00 40 1012.2
20260831234704 36 151 0.0 4.8 0.00 0.00 0.00 40 1012.2
20260831234204 36 207 1.6 4.8 0.00 0.00 0.00 40 1012.0
20260831232703 36 157 1.6 11.3 0.00 0.00 0.00 39 1012.1
20260831232204 36 77 0.0 1.6 0.00 0.00 0.00 40 1012.1
20260831231204 36 188 1.6 8.0 0.00 0.00 0.00 40 1012.2
20260831230703 36 194 0.0 8.0 0.00 0.00 0.00 40 1012.2
20260831230204 36 145 1.6 8.0 0.00 0.00 0.00 40 1012.2
20260831225704 36 164 3.2 9.7 0.00 0.00 0.00 40 1012.2
20260831224704 36 162 1.6 8.0 0.00 0.00 0.00 42 1012.2
20260831224203 36 206 3.2 8.0 0.00 0.00 0.00 40 1012.3
20260831223704 36 61 1.6 9.7 0.00 0.00 0.00 39 1012.2
20260831223203 36 173 1.6 11.3 0.00 0.00 0.00 40 1012.3
20260831222703 36 87 1.6 14.5 0.00 0.00 0.00 40 1012.3
20260831222204 36 189 8.0 12.9 0.00 0.00 0.00 40 1012.2
20260831221704 36 186 3.2 9.7 0.00 0.00 0.00 40 1012.2
20260831221203 36 137 4.8 8.0 0.00 0.00 0.00 41 1012.3
20260831220704 36 208 3.2 14.5 0.00 0.00 0.00 41 1012.3
20260831220204 36 0 0.0 9.7 0.00 0.00 0.00 42 1012.4
20260831215204 36 132 0.0 3.2 0.00 0.00 0.00 40 1012.4
20260831214703 36 129 0.0 0.0 0.00 0.00 0.00 40 1012.4
20260831214204 36 129 0.0 3.2 0.00 0.00 0.00 40 1012.4
20260831213704 36 197 0.0 1.6 0.00 0.00 0.00 41 1012.5
20260831212703 36 213 1.6 4.8 0.00 0.00 0.00 40 1012.5
20260831212204 36 122 0.0 1.6 0.00 0.00 0.00 40 1012.5
20260831210704 37 134 0.0 4.8 0.00 0.00 0.00 38 1012.6
20260831210203 37 191 4.8 12.9 0.00 0.00 0.00 38 1012.6
20260831205703 36 110 0.0 3.2 0.00 0.00 0.00 39 1012.7
20260831205204 37 78 1.6 4.8 0.00 0.00 0.00 38 1012.7
20260831204203 36 119 0.0 1.6 0.00 0.00 0.00 38 1012.9
20260831203203 37 117 3.2 11.3 0.00 0.00 0.00 37 1013.1
20260831202204 37 122 1.6 14.5 0.00 0.00 0.00 36 1013.0
20260831201703 37 218 4.8 11.3 0.00 0.00 0.00 37 1013.1
20260831201204 36 185 3.2 8.0 0.00 0.00 0.00 39 1013.1
20260831200204 36 50 3.2 4.8 0.00 0.00 0.00 37 1013.2
20260831195704 36 64 1.6 3.2 0.00 0.00 0.00 37 1013.3